Wind_Speed
10 10 7 9 12 12 11 11 6 13 16 23 3 5 4 9 12 23 30 34 41 44 40 37 35 30 27 25 24 21 18 15 12 9 7 5 4 4 2 3 3 3 3 3
5 12 13 8 14 11 16 16 9 6 13 9 8 12 7 7 15 19 23 33 38 42 42 40 39 35 30 30 28 25 19 18 14 11 9 8 6 4 2 2 1 1 1 1
7 3 0 7 13 13 10 6 5 7 7 8 10 12 12 11 14 19 22 27 36 42 46 42 36 34 37 34 27 24 21 18 16 14 12 9 8 5 3 2 2 2 1 1
3 2 6 6 4 6 14 9 14 10 11 10 13 14 15 20 18 20 24 31 32 39 43 39 37 38 36 32 29 23 22 21 19 16 14 11 9 7 5 5 4 2 2 2
3 5 6 9 6 6 7 7 14 14 12 14 20 16 19 25 24 26 22 29 31 33 40 43 45 39 38 36 28 27 24 24 19 18 14 13 10 9 8 6 4 3 3 2
4 4 6 5 3 2 1 5 3 5 6 5 7 2 7 12 17 22 19 21 26 32 38 40 42 38 38 34 31 28 25 22 20 18 15 14 12 11 9 7 5 4 3 4
7 5 6 6 9 2 2 6 4 1 5 3 5 6 9 7 11 20 19 19 24 33 39 39 37 35 38 34 31 26 25 23 20 17 16 15 14 12 10 7 6 5 5 5
7 4 9 12 2 8 6 2 5 11 12 12 13 12 11 9 6 6 6 7 15 28 33 32 32 34 38 33 29 27 26 24 21 20 20 18 14 14 11 8 7 6 7 6
8 7 5 7 8 8 6 11 18 18 17 15 12 12 11 7 4 3 5 7 13 19 24 26 30 31 35 34 32 31 28 24 23 22 21 18 16 13 12 10 7 8 8 7
3 6 8 13 9 15 16 16 15 16 15 14 13 10 9 7 6 5 5 9 12 17 21 26 28 32 32 30 30 27 24 23 24 24 23 19 16 13 11 8 7 7 7 7
2 5 2 11 15 18 16 10 12 11 12 12 12 10 8 6 7 6 7 9 12 16 20 24 29 31 31 28 28 26 25 25 25 23 21 20 16 12 10 7 5 4 6 7
4 10 8 5 5 8 8 8 10 10 11 10 9 9 7 6 5 7 7 9 14 16 19 24 27 29 28 26 26 26 26 26 25 25 23 20 19 17 13 9 8 8 8 8
5 8 8 7 7 8 7 8 10 11 11 10 9 5 5 6 5 7 8 9 15 17 20 23 26 27 25 25 25 25 26 27 25 25 24 22 21 19 18 14 11 10 11 11
9 9 8 11 7 6 5 8 10 11 10 6 4 2 3 5 6 8 9 11 15 16 17 21 24 25 26 26 26 25 22 20 24 24 22 21 19 17 14 13 16 16 13 11
11 10 9 10 10 11 10 8 6 7 6 6 5 2 4 7 9 9 10 11 13 15 17 20 22 24 24 25 23 21 21 20 22 20 18 16 16 15 13 12 13 12 13 13
4 4 5 7 7 6 7 6 5 8 10 9 7 3 5 5 8 10 10 12 15 16 17 18 19 20 23 23 22 21 19 18 19 19 18 18 17 15 15 13 14 13 12 13
7 5 6 5 4 5 6 6 5 6 9 9 6 1 4 5 8 9 10 11 12 13 14 16 19 19 20 21 21 22 22 19 18 19 18 18 16 15 14 13 14 14 11 10
8 7 2 4 8 7 7 6 5 8 7 8 6 2 4 5 7 9 10 10 10 12 14 15 15 16 16 19 20 21 18 18 18 18 18 17 16 14 14 14 14 14 14 13
11 6 5 8 8 7 6 6 7 8 8 4 3 3 2 3 5 6 7 8 10 13 16 17 16 15 15 18 19 17 17 16 17 17 16 15 15 15 15 14 14 13 14 13
12 8 8 9 9 7 5 6 7 7 5 5 4 4 4 5 5 6 6 7 9 10 12 16 18 17 16 18 18 18 17 17 16 14 14 15 15 15 14 13 13 13 13 13
9 10 10 9 10 6 6 7 8 7 6 5 2 5 6 6 6 5 6 6 6 7 12 16 18 17 15 16 19 17 16 16 15 14 14 14 14 14 14 13 13 12 12 13
9 9 9 8 7 10 12 10 8 6 7 6 7 7 7 7 7 7 7 4 3 6 10 16 19 18 16 17 17 15 14 15 14 13 13 13 13 13 13 12 12 12 12 12
9 8 9 9 9 11 12 9 8 7 6 6 6 6 5 4 4 5 5 4 3 5 9 12 15 17 17 17 14 12 13 12 12 12 12 11 11 11 11 11 11 11 11 11
10 11 11 9 8 9 10 9 9 10 9 8 8 6 5 5 6 6 5 3 3 4 6 10 15 16 16 15 12 11 10 10 10 10 10 10 10 11 11 11 10 10 11 11
9 9 8 9 8 8 9 8 8 9 8 7 7 8 8 7 6 5 6 4 4 5 7 10 13 16 16 12 11 11 9 8 8 8 9 9 9 9 10 10 10 10 11 11
11 10 9 8 7 8 8 7 7 9 7 7 7 7 7 7 6 6 7 6 5 7 8 10 14 14 12 10 9 8 9 9 8 7 8 9 9 10 10 10 10 10 11 12
10 10 9 9 7 6 4 5 6 7 7 6 6 6 6 5 5 6 7 7 8 8 9 10 13 14 12 10 8 8 9 9 8 8 8 8 8 9 9 9 10 10 11 12
Wind_Direction
231 235 239 248 256 284 286 266 264 316 285 259 336 297 198 198 188 177 184 188 193 190 191 196 197 197 201 199 200 199 199 198 202 205 201 205 223 255 316 330 321 306 298 317
263 226 228 256 251 254 255 265 237 298 324 342 340 335 348 173 179 202 198 190 198 197 194 201 202 200 198 200 194 196 191 199 199 203 202 208 217 228 264 282 279 240 272 308
254 178 180 271 246 228 233 212 218 234 212 249 284 311 291 287 222 218 218 204 198 211 209 203 201 201 199 196 192 189 197 197 204 198 202 204 208 212 202 197 187 158 190 251
266 179 237 242 205 202 224 236 217 258 259 261 246 232 279 280 262 264 256 229 225 217 217 210 204 206 203 199 190 196 196 199 202 200 199 199 203 196 189 171 169 167 189 212
230 215 298 297 255 183 196 262 231 231 270 279 265 238 271 274 273 276 266 260 260 238 224 214 209 206 201 195 194 196 194 200 203 202 199 199 192 195 180 164 171 182 178 138
168 207 222 234 284 201 213 285 220 183 245 270 153 185 253 273 262 271 276 252 251 242 233 224 213 211 203 192 198 195 197 195 201 206 199 194 185 186 179 165 171 181 185 111
200 212 275 237 243 294 135 247 210 303 305 206 203 227 278 282 249 258 265 252 240 232 227 219 213 205 199 199 196 197 192 194 199 198 196 193 182 175 169 160 168 177 183 120
210 214 256 213 140 180 215 306 315 311 303 276 273 278 284 295 285 273 270 237 209 206 203 203 202 200 197 196 198 193 189 195 195 189 194 191 182 171 163 157 163 169 178 147
184 206 228 212 212 206 283 287 297 301 302 283 270 275 288 289 279 239 217 201 194 196 193 193 195 197 194 197 193 186 190 192 188 190 191 187 182 179 167 162 158 161 159 164
115 220 229 232 234 271 291 288 293 298 293 283 264 266 270 269 278 273 229 204 196 192 189 189 191 193 202 194 185 187 190 187 188 190 183 183 180 178 175 169 165 163 158 173
276 277 303 257 249 267 267 272 291 302 305 290 271 268 263 255 266 250 225 213 199 195 193 193 191 193 192 195 188 190 188 185 187 189 187 183 181 179 178 178 176 180 172 178
207 198 171 200 241 258 256 286 285 291 292 287 278 270 268 266 255 242 228 218 207 202 202 200 196 194 193 191 190 192 185 184 188 190 187 186 182 172 180 205 208 182 173 178
182 211 222 190 226 241 263 274 276 273 263 262 271 263 271 239 221 225 220 226 216 210 209 203 198 198 197 194 195 194 190 186 190 189 187 188 188 189 189 188 192 185 175 164
224 251 247 232 227 206 235 282 283 259 239 230 233 249 293 253 229 219 221 225 218 213 211 207 203 200 198 197 195 193 188 186 193 190 191 191 193 192 195 196 183 175 173 172
244 246 256 270 270 277 263 253 241 220 199 181 148 63 314 237 229 224 223 220 214 211 209 208 206 201 197 195 193 188 185 182 192 189 189 193 188 185 187 188 189 191 189 187
200 246 276 279 276 254 216 224 204 201 180 169 154 58 355 227 218 215 215 214 210 207 209 209 205 198 190 193 193 186 174 186 185 193 187 185 188 191 192 196 195 192 193 205
220 198 197 193 196 217 234 235 231 205 185 169 162 132 276 208 207 208 207 209 214 219 213 202 192 188 190 191 188 179 173 181 188 188 193 196 199 202 205 207 207 209 209 218
242 231 194 247 232 204 202 210 206 191 190 179 169 200 271 211 205 204 207 207 201 196 193 189 188 182 182 183 181 170 168 176 184 193 200 204 208 212 217 216 215 216 220 226
214 184 211 199 168 177 171 183 191 185 181 206 225 225 172 146 174 188 189 191 193 193 192 190 189 184 180 180 179 179 183 190 198 203 210 214 217 221 221 218 221 225 228 235
172 173 166 157 149 154 165 171 169 169 184 210 219 197 164 143 147 163 171 183 194 200 195 191 190 191 191 192 190 188 196 205 209 213 215 218 221 218 217 220 226 232 234 239
146 141 138 139 149 153 143 148 157 158 176 176 184 166 149 139 138 153 171 177 182 196 205 199 195 195 193 194 194 190 199 209 217 225 227 220 213 215 221 226 229 233 236 240
134 134 130 140 146 145 140 138 138 157 170 175 161 156 156 158 161 160 162 168 195 206 198 200 201 203 202 197 193 191 200 217 222 220 213 212 218 224 227 229 232 236 237 238
143 140 141 143 148 153 150 158 159 147 150 147 148 149 153 163 173 182 187 201 233 211 206 201 201 202 202 201 185 195 201 203 203 205 210 219 224 227 227 230 236 236 237 241
150 144 143 142 145 156 159 161 164 160 151 153 149 154 171 188 188 190 198 205 213 196 187 194 199 202 199 178 179 186 186 189 196 206 212 217 221 223 224 231 232 233 238 244
165 162 165 158 161 160 165 166 169 165 171 173 175 177 180 180 181 200 209 211 204 186 184 184 186 183 173 173 186 192 196 201 208 215 218 223 224 225 228 231 235 241 245 252
163 164 164 170 173 167 173 174 179 171 181 188 188 189 195 199 199 198 196 194 184 181 182 191 191 184 175 187 191 202 208 211 221 226 227 226 225 227 230 236 242 248 254 259
165 171 173 166 167 170 174 178 166 171 180 182 180 189 198 203 200 190 183 178 171 172 179 190 193 185 188 195 205 205 211 216 225 233 233 231 231 234 237 242 249 254 261 267
Height
1476 1475 1474 1470 1466 1465 1465 1456 1455 1445 1434 1412 1416 1418 1413 1414 1421 1416 1417 1419 1424 1427 1435 1443 1449 1454 1459 1463 1468 1474 1476 1479 1485 1486 1487 1489 1492 1496 1493 1493 1493 1496 1495 1495
1478 1468 1469 1459 1452 1447 1455 1449 1442 1442 1436 1428 1424 1418 1414 1411 1412 1422 1423 1413 1424 1427 1426 1433 1440 1445 1451 1456 1460 1467 1470 1475 1479 1483 1484 1487 1490 1492 1492 1494 1494 1495 1495 1494
1462 1460 1460 1460 1443 1437 1438 1436 1437 1434 1418 1422 1422 1421 1415 1414 1411 1416 1421 1420 1417 1426 1425 1426 1435 1442 1446 1452 1457 1462 1468 1472 1478 1477 1482 1484 1487 1489 1489 1491 1494 1494 1495 1496
1456 1457 1455 1435 1427 1427 1430 1425 1426 1423 1421 1417 1415 1413 1413 1412 1412 1413 1418 1420 1416 1417 1427 1429 1433 1437 1443 1450 1452 1458 1463 1469 1473 1475 1477 1481 1485 1486 1488 1488 1492 1494 1495 1496
1453 1449 1444 1431 1425 1429 1431 1422 1418 1417 1414 1414 1412 1413 1411 1407 1409 1409 1410 1414 1415 1418 1422 1424 1425 1432 1438 1442 1447 1453 1458 1466 1470 1474 1475 1478 1480 1485 1485 1485 1491 1494 1495 1494
1452 1454 1457 1431 1422 1421 1424 1429 1412 1410 1412 1411 1410 1418 1406 1401 1402 1403 1405 1407 1409 1413 1416 1421 1425 1428 1435 1438 1444 1451 1457 1462 1468 1474 1474 1477 1476 1482 1484 1484 1489 1493 1495 1493
1438 1439 1434 1421 1418 1421 1432 1425 1409 1409 1411 1410 1411 1409 1403 1398 1399 1402 1401 1401 1404 1406 1408 1414 1420 1426 1432 1438 1444 1448 1455 1462 1467 1470 1475 1476 1476 1478 1482 1484 1488 1492 1495 1491
1431 1435 1434 1412 1417 1421 1414 1410 1409 1409 1409 1408 1407 1406 1403 1397 1396 1398 1399 1398 1399 1402 1406 1410 1416 1422 1428 1438 1443 1449 1454 1460 1463 1465 1473 1477 1475 1477 1480 1484 1489 1490 1493 1489
1422 1417 1407 1408 1407 1407 1408 1410 1408 1407 1405 1404 1403 1403 1402 1399 1398 1398 1401 1401 1401 1402 1407 1412 1416 1420 1428 1436 1441 1447 1452 1456 1458 1463 1470 1473 1474 1477 1480 1485 1487 1489 1490 1489
1414 1405 1406 1406 1403 1404 1406 1407 1406 1404 1402 1401 1399 1399 1400 1400 1400 1401 1402 1402 1404 1407 1408 1412 1414 1420 1430 1437 1440 1446 1451 1456 1460 1464 1463 1470 1474 1477 1481 1484 1485 1487 1488 1489
1408 1402 1403 1401 1401 1404 1404 1403 1402 1400 1400 1399 1398 1398 1398 1398 1401 1402 1403 1404 1406 1408 1410 1413 1417 1422 1429 1434 1440 1444 1449 1454 1457 1465 1463 1467 1472 1477 1480 1484 1486 1487 1488 1490
1400 1392 1396 1397 1400 1401 1401 1399 1398 1397 1397 1398 1398 1400 1399 1399 1400 1403 1404 1404 1408 1410 1412 1415 1419 1424 1429 1434 1438 1443 1446 1452 1456 1460 1463 1467 1472 1474 1480 1483 1485 1486 1488 1490
1386 1388 1392 1396 1398 1398 1398 1397 1396 1395 1394 1395 1397 1398 1399 1400 1400 1402 1402 1404 1409 1412 1415 1417 1420 1425 1429 1434 1437 1441 1445 1450 1454 1459 1463 1466 1469 1472 1475 1481 1484 1486 1488 1489
1383 1387 1390 1392 1394 1394 1395 1394 1394 1393 1392 1393 1395 1394 1397 1401 1400 1401 1403 1406 1409 1412 1415 1419 1422 1425 1429 1433 1436 1440 1444 1448 1453 1457 1462 1465 1468 1471 1474 1478 1481 1484 1487 1489
1382 1383 1385 1387 1389 1389 1389 1390 1392 1393 1391 1393 1395 1396 1398 1400 1401 1402 1405 1407 1410 1413 1416 1419 1422 1425 1428 1432 1436 1440 1443 1447 1452 1457 1461 1465 1467 1470 1474 1478 1481 1484 1486 1488
1379 1380 1381 1382 1383 1384 1386 1387 1389 1392 1392 1393 1395 1397 1398 1401 1402 1404 1406 1408 1410 1412 1415 1418 1421 1425 1428 1431 1435 1439 1443 1447 1452 1456 1460 1463 1466 1469 1473 1476 1479 1482 1484 1486
1376 1378 1379 1379 1379 1381 1384 1385 1387 1389 1391 1393 1396 1397 1400 1401 1401 1403 1405 1408 1410 1412 1415 1418 1421 1424 1427 1431 1434 1438 1442 1446 1451 1455 1458 1462 1465 1468 1471 1475 1478 1480 1483 1484
1374 1375 1374 1377 1380 1380 1381 1384 1386 1388 1390 1393 1396 1398 1399 1400 1401 1402 1405 1407 1409 1412 1415 1418 1422 1425 1428 1431 1434 1438 1442 1446 1450 1454 1458 1461 1464 1467 1470 1473 1476 1479 1480 1482
1371 1372 1374 1377 1377 1379 1382 1384 1386 1389 1391 1393 1395 1397 1398 1399 1400 1403 1405 1407 1409 1412 1415 1419 1422 1425 1428 1432 1435 1439 1443 1446 1450 1453 1457 1460 1463 1466 1469 1471 1474 1476 1478 1479
1370 1372 1374 1375 1376 1380 1383 1385 1387 1389 1391 1394 1396 1397 1398 1400 1401 1403 1405 1407 1410 1413 1415 1418 1422 1425 1428 1432 1436 1440 1443 1446 1450 1452 1455 1458 1461 1464 1467 1469 1471 1473 1474 1476
1372 1373 1373 1375 1378 1381 1383 1386 1388 1391 1393 1395 1396 1398 1399 1400 1402 1404 1406 1408 1410 1413 1415 1418 1421 1425 1428 1431 1435 1438 1441 1445 1448 1451 1454 1456 1459 1462 1464 1466 1468 1470 1471 1472
1373 1374 1375 1377 1380 1382 1385 1388 1390 1392 1394 1395 1396 1398 1400 1402 1403 1405 1408 1410 1411 1413 1414 1417 1421 1424 1427 1430 1433 1437 1440 1444 1446 1449 1452 1454 1457 1459 1461 1463 1465 1466 1467 1469
1375 1376 1378 1381 1383 1385 1387 1389 1391 1392 1394 1395 1397 1399 1401 1403 1405 1406 1408 1410 1411 1412 1414 1417 1420 1424 1427 1430 1433 1436 1439 1442 1445 1447 1450 1452 1455 1457 1458 1460 1461 1462 1463 1465
1377 1379 1381 1383 1385 1386 1387 1389 1391 1392 1394 1395 1397 1399 1402 1403 1405 1407 1409 1410 1411 1413 1414 1417 1419 1423 1426 1429 1433 1436 1439 1441 1444 1446 1448 1450 1452 1453 1455 1456 1458 1459 1460 1461
1378 1380 1382 1384 1385 1386 1387 1389 1390 1392 1394 1395 1397 1399 1401 1403 1405 1407 1408 1410 1411 1413 1415 1417 1420 1423 1426 1430 1433 1436 1438 1441 1442 1444 1446 1448 1449 1451 1452 1453 1455 1456 1457 1458
1378 1380 1382 1384 1385 1386 1387 1388 1390 1392 1394 1396 1397 1399 1400 1402 1404 1405 1407 1409 1411 1412 1415 1417 1420 1423 1426 1430 1433 1435 1437 1439 1441 1443 1444 1445 1447 1448 1449 1450 1452 1452 1453 1454
1378 1380 1382 1384 1385 1387 1388 1389 1390 1392 1394 1395 1397 1399 1400 1402 1403 1405 1406 1408 1410 1412 1415 1417 1420 1423 1427 1430 1432 1434 1435 1437 1439 1440 1441 1443 1444 1445 1446 1447 1448 1449 1450 1450